This is the latest recevied weather packets stored in our database for station/object SQ2WB-13. If no packets are shown the sender has not sent any weather packets the latest 10 day(s).
| Time | Temp. | Humidity | Pressure | Rain* | Wind** | Luminosity | Snow |
|---|---|---|---|---|---|---|---|
| 1787824802 | 23.89° C | 51% | 1014.5 hPa | 0 mm | - | - | - |
| 1787823903 | 23.89° C | 51% | 1014.5 hPa | 0 mm | - | - | - |
| 1787823002 | 23.89° C | 52% | 1014.5 hPa | 0 mm | - | - | - |
| 1787822102 | 23.89° C | 54% | 1014.5 hPa | 0 mm | - | - | - |
| 1787821201 | 23.89° C | 54% | 1014.5 hPa | 0 mm | - | - | - |
| 1787820301 | 23.89° C | 57% | 1014.5 hPa | 0 mm | - | - | - |
| 1787819401 | 22.78° C | 57% | 1014.5 hPa | 0 mm | - | - | - |
| 1787818502 | 22.78° C | 60% | 1014.5 hPa | 0 mm | - | - | - |
| 1787817601 | 21.67° C | 61% | 1014.5 hPa | 0 mm | - | - | - |
| 1787816702 | 21.67° C | 66% | 1014.5 hPa | 0 mm | - | - | - |
| 1787815801 | 20.56° C | 67% | 1014.5 hPa | 0 mm | - | - | - |
| 1787814902 | 20° C | 70% | 1014.5 hPa | 0 mm | - | - | - |
| 1787814001 | 18.89° C | 73% | 1014.5 hPa | 0 mm | - | - | - |
| 1787813102 | 17.78° C | 74% | 1014.5 hPa | 0 mm | - | - | - |
| 1787812202 | 16.67° C | 84% | 1014.5 hPa | 0 mm | - | - | - |
| 1787811302 | 15° C | 91% | 1014.5 hPa | 0 mm | - | - | - |
| 1787810400 | 13.89° C | 95% | 1014.5 hPa | 0 mm | - | - | - |
| 1787809500 | 12.78° C | 98% | 1014.5 hPa | 0 mm | - | - | - |
| 1787808601 | 11.67° C | 99% | 1014.5 hPa | 0 mm | - | - | - |
| 1787807701 | 10.56° C | 99% | 1014.5 hPa | 0 mm | - | - | - |
| 1787806802 | 10° C | 99% | 1014.5 hPa | 0 mm | - | - | - |
| 1787805901 | 10° C | 99% | 1014.5 hPa | 0 mm | - | - | - |
| 1787805001 | 10° C | 99% | 1014.5 hPa | 0 mm | - | - | - |
| 1787804102 | 10° C | 99% | 1014.5 hPa | 0 mm | - | - | - |
| 1787803204 | 10° C | 99% | 1014.5 hPa | 0 mm | - | - | - |
* Rain latest hour (hover to see other rain measurements)
** Current wind speed in m/s (hover to see current wind gust speed)